FW1286 Weather Reports


Display with metric or nautical units.
time (UTC)temp
F
wind
direction
speed
MPH
gust
MPH
rain 1hr
in
rain 24hr
in
rain mn
in
humidity
%
barometer
mb
20210625072052 78 171 4.0 12.0 0.00 0.00 0.00 87 1012.5
20210625071017 78 133 4.0 12.0 0.00 0.00 0.00 86 1012.6
20210625070023 78 156 5.0 11.0 0.00 0.00 0.00 86 1012.7
20210625065041 79 156 5.0 12.0 0.00 0.00 0.00 85 1012.7
20210625064048 79 142 6.0 14.0 0.00 0.00 0.00 85 1012.7
20210625063019 79 107 7.0 18.0 0.00 0.00 0.00 85 1012.6
20210625062009 79 101 7.0 18.0 0.00 0.00 0.00 85 1012.6
20210625061005 80 107 7.0 17.0 0.00 0.00 0.00 85 1012.8
20210625060022 80 118 7.0 17.0 0.00 0.00 0.00 85 1012.8
20210625054948 80 131 6.0 14.0 0.00 0.00 0.00 85 1012.6
20210625053934 80 129 6.0 11.0 0.00 0.00 0.00 84 1012.6
20210625052920 80 115 5.0 13.0 0.00 0.00 0.00 84 1012.7
20210625051929 81 170 6.0 14.0 0.00 0.00 0.00 83 1012.7
20210625050942 81 123 7.0 18.0 0.00 0.00 0.00 83 1012.7
20210625045915 81 121 8.0 18.0 0.00 0.00 0.00 82 1012.7
20210625044931 81 153 6.0 11.0 0.00 0.00 0.00 83 1012.6
20210625043929 82 115 8.0 18.0 0.00 0.00 0.00 82 1012.5
20210625042948 82 135 8.0 18.0 0.00 0.00 0.00 82 1012.6
20210625041935 82 138 6.0 14.0 0.00 0.00 0.00 81 1012.6
20210625040935 82 105 5.0 13.0 0.00 0.00 0.00 81 1012.4
20210625035903 83 111 4.0 10.0 0.00 0.00 0.00 80 1012.3
20210625034848 83 140 5.0 13.0 0.00 0.00 0.00 79 1012.3
20210625033905 83 146 4.0 13.0 0.00 0.00 0.00 79 1012.2
20210625032857 84 138 5.0 11.0 0.00 0.00 0.00 78 1011.9
20210625031905 84 121 4.0 11.0 0.00 0.00 0.00 78 1011.8
20210625030918 84 125 5.0 11.0 0.00 0.00 0.00 79 1011.8
20210625025924 84 124 5.0 11.0 0.00 0.00 0.00 78 1011.7
20210625024901 84 146 4.0 10.0 0.00 0.00 0.00 78 1011.6
20210625023917 85 89 4.0 10.0 0.00 0.00 0.00 77 1011.4
20210625022914 85 117 3.0 12.0 0.00 0.00 0.00 76 1011.3
20210625021844 85 113 4.0 12.0 0.00 0.00 0.00 75 1011.2
20210625020856 85 97 4.0 9.0 0.00 0.00 0.00 75 1011.4
20210625015841 85 119 3.0 10.0 0.00 0.00 0.00 75 1011.2
20210625014902 86 111 3.0 10.0 0.00 0.00 0.00 74 1011.2
20210625013832 86 103 3.0 9.0 0.00 0.00 0.00 73 1011.2
20210625012841 87 98 3.0 9.0 0.00 0.00 0.00 72 1011.2
20210625011818 87 106 3.0 9.0 0.00 0.00 0.00 71 1011.1
20210625010810 88 107 3.0 11.0 0.00 0.00 0.00 70 1011.0
20210625005742 88 111 4.0 11.0 0.00 0.00 0.00 69 1010.9
20210625004708 89 63 4.0 10.0 0.00 0.00 0.00 68 1010.8
20210625003729 90 96 3.0 8.0 0.00 0.00 0.00 68 1010.7
20210625002715 90 112 4.0 11.0 0.00 0.00 0.00 66 1010.6
20210625001724 91 120 5.0 11.0 0.00 0.00 0.00 63 1010.6
20210625000652 91 134 4.0 9.0 0.00 0.00 0.00 62 1010.5
20210624235707 91 140 3.0 10.0 0.00 0.00 0.00 63 1010.5
20210624234638 91 125 4.0 10.0 0.00 0.00 0.00 63 1010.5
20210624233620 91 111 4.0 9.0 0.00 0.00 0.00 63 1010.5
20210624232606 92 115 5.0 9.0 0.00 0.00 0.00 63 1010.5
20210624231617 92 109 4.0 9.0 0.00 0.00 0.00 61 1010.6
20210624230637 91 153 5.0 14.0 0.00 0.00 0.00 61 1010.7
20210624225650 93 115 7.0 14.0 0.00 0.00 0.00 59 1010.7
20210624224617 93 119 6.0 12.0 0.00 0.00 0.00 59 1010.8
20210624223613 92 131 5.0 13.0 0.00 0.00 0.00 59 1010.8
20210624222554 92 148 6.0 13.0 0.00 0.00 0.00 59 1010.9
20210624221536 92 152 6.0 13.0 0.00 0.00 0.00 59 1011.1
20210624220537 94 150 7.0 13.0 0.00 0.00 0.00 56 1011.0
20210624215543 94 136 7.0 14.0 0.00 0.00 0.00 56 1011.1
20210624214527 94 122 5.0 12.0 0.00 0.00 0.00 56 1011.3
20210624213501 94 174 5.0 17.0 0.00 0.00 0.00 56 1011.4
20210624212432 94 136 7.0 17.0 0.00 0.00 0.00 55 1011.7
20210624211406 94 146 6.0 14.0 0.00 0.00 0.00 56 1011.7
20210624210348 94 157 6.0 14.0 0.00 0.00 0.00 54 1011.9
20210624205317 94 114 7.0 14.0 0.00 0.00 0.00 56 1011.9
20210624204245 94 128 6.0 12.0 0.00 0.00 0.00 55 1011.9
20210624202134 93 137 6.0 17.0 0.00 0.00 0.00 57 1012.1
20210624201057 93 136 7.0 17.0 0.00 0.00 0.00 58 1012.4
20210624200030 93 131 5.0 21.0 0.00 0.00 0.00 58 1012.3
20210624195047 92 163 7.0 21.0 0.00 0.00 0.00 60 1012.5
20210624194029 92 138 7.0 13.0 0.00 0.00 0.00 59 1012.7
20210624193035 92 167 7.0 17.0 0.00 0.00 0.00 61 1012.8
20210624192002 91 163 6.0 17.0 0.00 0.00 0.00 62 1012.8
20210624190953 91 116 4.0 11.0 0.00 0.00 0.00 64 1013.1
20210624185932 90 171 4.0 10.0 0.00 0.00 0.00 64 1013.2
20210624184929 89 163 4.0 19.0 0.00 0.00 0.00 69 1013.5
20210624183916 90 140 7.0 19.0 0.00 0.00 0.00 64 1013.6
20210624182854 89 190 7.0 18.0 0.00 0.00 0.00 65 1013.7
20210624181839 89 143 8.0 18.0 0.00 0.00 0.00 66 1013.8
20210624180830 89 148 7.0 14.0 0.00 0.00 0.00 66 1014.0
20210624175824 89 148 7.0 15.0 0.00 0.00 0.00 66 1014.0
20210624174834 89 123 5.0 15.0 0.00 0.00 0.00 67 1014.2
20210624173818 88 178 7.0 14.0 0.00 0.00 0.00 66 1014.4
20210624172833 88 127 6.0 13.0 0.00 0.00 0.00 67 1014.4
20210624171845 88 148 7.0 14.0 0.00 0.00 0.00 67 1014.4
20210624170904 88 90 7.0 14.0 0.00 0.00 0.00 68 1014.5
20210624165843 88 142 6.0 15.0 0.00 0.00 0.00 69 1014.5
20210624164814 88 127 7.0 17.0 0.00 0.00 0.00 69 1014.6
20210624163753 87 128 8.0 20.0 0.00 0.00 0.00 70 1014.6
20210624162733 87 106 8.0 20.0 0.00 0.00 0.00 71 1014.6
20210624161752 86 107 7.0 13.0 0.00 0.00 0.00 73 1014.6
20210624160731 86 211 7.0 12.0 0.00 0.00 0.00 72 1014.7
20210624155702 85 155 6.0 13.0 0.00 0.00 0.00 72 1014.7
20210624154705 84 162 6.0 13.0 0.00 0.00 0.00 76 1014.8
20210624153655 83 136 5.0 13.0 0.00 0.00 0.00 79 1014.9
20210624152648 83 150 6.0 13.0 0.00 0.00 0.00 77 1014.9
20210624151622 84 161 6.0 13.0 0.00 0.00 0.00 76 1015.1
20210624150640 82 146 5.0 13.0 0.00 0.00 0.00 79 1015.0
20210624145659 82 136 5.0 13.0 0.00 0.00 0.00 80 1014.9
20210624144641 81 142 5.0 11.0 0.00 0.00 0.00 81 1015.0
20210624143633 81 130 6.0 14.0 0.00 0.00 0.00 81 1015.0
20210624142642 81 134 5.0 14.0 0.00 0.00 0.00 82 1014.8
20210624141629 80 136 6.0 14.0 0.00 0.00 0.00 83 1014.9
20210624140605 80 157 4.0 12.0 0.00 0.00 0.00 84 1015.0
20210624135537 79 195 4.0 9.0 0.00 0.00 0.00 87 1015.0
20210624134501 79 161 4.0 11.0 0.00 0.00 0.00 86 1015.0
20210624133424 79 132 4.0 11.0 0.00 0.00 0.00 87 1014.9
20210624132438 79 164 4.0 11.0 0.00 0.00 0.00 88 1014.7
20210624131402 78 133 4.0 11.0 0.00 0.00 0.00 89 1014.7
20210624130330 77 117 2.0 8.0 0.00 0.00 0.00 90 1014.8
20210624125305 77 134 4.0 9.0 0.00 0.00 0.00 91 1014.6
20210624124251 76 126 3.0 9.0 0.00 0.00 0.00 93 1014.6
20210624123237 76 124 3.0 8.0 0.00 0.00 0.00 93 1014.5
20210624122204 75 113 1.0 7.0 0.00 0.00 0.00 94 1014.5
20210624121130 75 132 2.0 7.0 0.00 0.00 0.00 94 1014.4
20210624120114 74 117 2.0 7.0 0.00 0.00 0.00 94 1014.3
20210624115113 74 119 2.0 6.0 0.00 0.00 0.00 93 1014.3
20210624114051 74 142 2.0 6.0 0.00 0.00 0.00 93 1014.1
20210624113107 74 121 2.0 6.0 0.00 0.00 0.00 92 1014.0
20210624112110 74 132 2.0 7.0 0.00 0.00 0.00 92 1013.9
20210624111037 75 121 3.0 7.0 0.00 0.00 0.00 92 1014.1
20210624110006 75 132 2.0 9.0 0.00 0.00 0.00 92 1014.1
20210624104941 75 138 3.0 9.0 0.00 0.00 0.00 91 1014.1
20210624103949 75 146 2.0 9.0 0.00 0.00 0.00 91 1014.2
20210624102941 75 139 2.0 7.0 0.00 0.00 0.00 90 1014.2
20210624101945 75 137 2.0 6.0 0.00 0.00 0.00 90 1014.2
20210624100928 75 142 2.0 7.0 0.00 0.00 0.00 89 1014.2
20210624095918 75 130 3.0 7.0 0.00 0.00 0.00 89 1014.3
20210624094914 75 150 2.0 7.0 0.00 0.00 0.00 89 1014.4
20210624093931 75 164 3.0 8.0 0.00 0.00 0.00 89 1014.3
20210624092916 75 150 3.0 9.0 0.00 0.00 0.00 88 1014.2
20210624091915 76 124 4.0 11.0 0.00 0.00 0.00 88 1014.1
20210624090839 76 144 4.0 11.0 0.00 0.00 0.00 87 1014.1
20210624085851 76 157 4.0 11.0 0.00 0.00 0.00 86 1014.1
20210624084828 76 149 4.0 11.0 0.00 0.00 0.00 86 1014.2
20210624083755 76 149 4.0 12.0 0.00 0.00 0.00 85 1014.1
20210624082748 77 125 5.0 12.0 0.00 0.00 0.00 84 1014.2
20210624081806 77 130 4.0 11.0 0.00 0.00 0.00 83 1014.1
20210624080759 77 144 3.0 7.0 0.00 0.00 0.00 83 1014.1
20210624075732 78 131 4.0 11.0 0.00 0.00 0.00 82 1014.0
20210624074722 78 112 4.0 10.0 0.00 0.00 0.00 81 1014.1
20210624073733 78 149 4.0 9.0 0.00 0.00 0.00 83 1014.2
20210624072725 78 140 4.0 10.0 0.00 0.00 0.00 83 1014.3